Rockport, WA (98283)

8:36 AM PST on February 13, 2016 (GMT -0800)
thunderbird land concrete wa | | Change Station
CLOSE
Current Station
Personal Weather Station
Location: Concrete, WA
Elevation: 230 ft
Nearby Weather Stations
Active Advisory: Winter Weather Advisory

Elev 230 ft 48.51 °N, 121.71 °W | Updated 8 minutes ago

Mostly Cloudy
Mostly Cloudy
41.5 °F
Feels Like 42 °F
N
2.2
Wind Variable Wind from ESE

Today
High -- | Low -- °F
--% Chance of Precip.
Yesterday
High -- | Low -- °F
Precip. -- in
Pressure 30.27 in
Visibility 10.0 miles
Clouds Overcast 2900 ft
Windchill 42 °F
Dew Point 41 °F
Humidity 99%
Rainfall 0.30 in
Snow Depth Not available.
7:17 AM 5:23 PM
Waxing Crescent, 32% visible
METAR KAWO 131635Z AUTO 15011G19KT 10SM OVC029 08/03 A3027 RMK AO1
Pressure 30.27 in
Visibility 10.0 miles
Clouds Overcast 2900 ft
Windchill 42 °F
Dew Point 41 °F
Humidity 99%
Rainfall 0.30 in
Snow Depth Not available.
7:17 AM 5:23 PM
Waxing Crescent, 32% visible
METAR KAWO 131635Z AUTO 15011G19KT 10SM OVC029 08/03 A3027 RMK AO1

10-Day Weather Forecast

Almanac

Astronomy

Feb. 13, 2016 Rise Set
Actual Time
Civil Twilight
Nautical Twilight
Astronomical Twilight
Moon
Length of Visible Light
Length of Day
Tomorrow will be .
, % of the Moon is Illuminated

Today's Extremes

State Highs State Lows

Community

WunderPhotos

Upload Photos

1,892,600 photos uploaded!

WunderBlog® & News

Nearby

Air Quality

  Air Quality AQ Index Pollutant
Not available.

Snow Depth

Station Depth Elevation

Earthquake Activity

City Distance Mag. Time & Date
Minimum magnitude displayed is 2.5.

Coastal Water Temperatures

Place Temperature

Stations

Nearby Weather Stations

Station Location Temp. Windchill Dew Point Humidity Wind Precip. Elev Updated Type
                   

Watches & Warnings

Winter Weather Advisory
Issued: 3:53 AM PST Feb. 13, 2016 – National Weather Service

... Winter Weather Advisory now in effect until 4 am PST Sunday...

* accumulations... 7 to 14 inches of additional snow is expected
through early Sunday morning above 3500 feet.

* Some affected locations... Mount Baker ski area.

* Main impact... snow covered roads and reduced visibilities at
times.

Precautionary/preparedness actions...

A Winter Weather Advisory for snow means that snow will cause
primarily travel difficulties. Use caution while driving.